This demonstration page uses our WeatherBlox Daily Observations layout. Learn more.

Hourly Observations for June 4, 2020

Temp ( °F °C ) Dew Point ( °F °C ) Humidity (%) Winds ( mph kmh ) Pressure ( in mb ) Visibility ( mi km ) Precip ( " mm )
12:15 am 00:15 Clear 81 27 61 16 51 51 WSW 3 6 29.81 1010 10 16.0934 0 0
12:35 am 00:35 Clear 79 26 63 17 58 58 Calm 29.82 1010 10 16.0934 0 0
12:55 am 00:55 Clear 75 24 63 17 65 65 W 3 6 29.83 1010 10 16.0934 0 0
1:15 am 01:15 Clear 75 24 63 17 65 65 N 3 6 29.82 1010 10 16.0934 0 0
1:35 am 01:35 Clear 73 23 63 17 69 69 N 6 9 29.82 1010 10 16.0934 0 0
1:55 am 01:55 Clear 73 23 63 17 69 69 NNW 3 6 29.82 1010 10 16.0934 0 0
2:15 am 02:15 Clear 73 23 63 17 69 69 NW 3 6 29.82 1010 10 16.0934 0 0
2:35 am 02:35 Clear 73 23 63 17 69 69 Calm 29.82 1010 10 16.0934 0 0
2:55 am 02:55 Clear 72 22 63 17 73 73 Calm 29.82 1010 10 16.0934 0 0
3:15 am 03:15 Clear 72 22 64 18 78 78 Calm 29.82 1010 10 16.0934 0 0
3:35 am 03:35 Clear 73 23 63 17 69 69 N 5 7 29.82 1010 7 11.26538 0 0
3:55 am 03:55 Clear 72 22 63 17 73 73 Calm 29.82 1010 10 16.0934 0 0
4:15 am 04:15 Clear 72 22 63 17 73 73 Calm 29.83 1010 10 16.0934 0 0
4:35 am 04:35 Clear 72 22 63 17 73 73 N 3 6 29.83 1010 10 16.0934 0 0
4:55 am 04:55 Clear 72 22 64 18 78 78 S 7 11 29.83 1010 10 16.0934 0 0
5:15 am 05:15 Clear 72 22 63 17 73 73 Calm 29.84 1010 10 16.0934 0 0
5:35 am 05:35 Clear 70 21 63 17 78 78 Calm 29.85 1011 10 16.0934 0 0
5:55 am 05:55 Sunny 68 20 63 17 83 83 S 3 6 29.85 1011 10 16.0934 0 0
6:15 am 06:15 Sunny 68 20 63 17 83 83 Calm 29.85 1011 10 16.0934 0 0
6:35 am 06:35 Sunny 68 20 64 18 88 88 NNW 5 7 29.87 1012 10 16.0934 0 0
6:55 am 06:55 Sunny 72 22 64 18 78 78 Calm 29.88 1012 10 16.0934 0 0
7:15 am 07:15 Sunny 70 21 66 19 88 88 Calm 29.89 1012 10 16.0934 0 0
7:35 am 07:35 Sunny 72 22 66 19 83 83 Calm 29.89 1012 10 16.0934 0 0
7:55 am 07:55 Sunny 72 22 66 19 83 83 Calm 29.89 1012 10 16.0934 0 0
8:15 am 08:15 Sunny 73 23 66 19 78 78 Calm 29.89 1012 10 16.0934 0 0
8:35 am 08:35 Sunny 73 23 68 20 83 83 Calm 29.9 1012 10 16.0934 0 0
8:55 am 08:55 Sunny 77 25 68 20 74 74 SSE 3 6 29.9 1013 10 16.0934 0 0
9:15 am 09:15 Sunny 79 26 68 20 70 70 SSW 3 6 29.9 1013 10 16.0934 0 0
9:35 am 09:35 Sunny 79 26 68 20 70 70 S 3 6 29.9 1013 10 16.0934 0 0
9:55 am 09:55 Sunny 81 27 68 20 66 66 S 5 7 29.9 1013 10 16.0934 0 0
10:15 am 10:15 Sunny 81 27 68 20 66 66 S 5 7 29.91 1013 10 16.0934 0 0
10:35 am 10:35 Sunny 82 28 68 20 62 62 S 7 11 29.91 1013 10 16.0934 0 0
10:55 am 10:55 Sunny 82 28 68 20 62 62 SW 6 9 29.91 1013 10 16.0934 0 0
11:15 am 11:15 Sunny 84 29 68 20 58 58 S 5 7 29.91 1013 10 16.0934 0 0
11:35 am 11:35 Sunny 86 30 64 18 49 49 SSE 8 13 29.91 1013 10 16.0934 0 0
11:55 am 11:55 Sunny 86 30 66 19 52 52 WSW 6 9 29.91 1013 10 16.0934 0 0
12:15 pm 12:15 Sunny 88 31 66 19 49 49 SSW 7 11 29.91 1013 10 16.0934 0 0
12:35 pm 12:35 Sunny 88 31 64 18 46 46 S 7 11 29.9 1012 10 16.0934 0 0
12:55 pm 12:55 Sunny 88 31 64 18 46 46 WSW 3 6 29.89 1012 10 16.0934 0 0
1:15 pm 13:15 Sunny 90 32 64 18 43 43 SSW 5 7 29.89 1012 10 16.0934 0 0
1:35 pm 13:35 Sunny 90 32 64 18 43 43 SW 7 11 29.88 1012 10 16.0934 0 0
1:55 pm 13:55 Partly Cloudy 90 32 64 18 43 43 SSW 5 7 29.87 1011 10 16.0934 0 0
2:15 pm 14:15 Partly Cloudy 91 33 64 18 41 41 SSW 9 15 29.85 1011 10 16.0934 0 0
2:35 pm 14:35 Partly Cloudy 90 32 64 18 43 43 S 10 17 29.86 1011 10 16.0934 0 0
2:55 pm 14:55 Mostly Cloudy 90 32 64 18 43 43 S 10 17 29.85 1011 10 16.0934 0 0
3:15 pm 15:15 Mostly Cloudy 90 32 64 18 43 43 S 12 19 29.85 1011 10 16.0934 0 0
3:35 pm 15:35 Partly Cloudy 91 33 63 17 38 38 SSE 12 19 29.82 1010 10 16.0934 0 0
3:55 pm 15:55 Partly Cloudy 91 33 64 18 41 41 SW 9 15 29.82 1010 10 16.0934 0 0
4:15 pm 16:15 Partly Cloudy 91 33 63 17 38 38 S 13 20 29.81 1010 10 16.0934 0 0
4:35 pm 16:35 Sunny 91 33 64 18 41 41 S 14 22 29.8 1009 10 16.0934 0 0
4:55 pm 16:55 Partly Cloudy 91 33 64 18 41 41 S 12 19 29.79 1009 10 16.0934 0 0
5:15 pm 17:15 Sunny 91 33 64 18 41 41 S 12 19 29.79 1009 10 16.0934 0 0
5:35 pm 17:35 Sunny 90 32 66 19 46 46 S 14 22 29.8 1009 10 16.0934 0 0
5:55 pm 17:55 Partly Cloudy 90 32 68 20 49 49 S 13 20 29.8 1009 10 16.0934 0 0
6:15 pm 18:15 Partly Cloudy 90 32 68 20 49 49 S 10 17 29.81 1009 10 16.0934 0 0
6:35 pm 18:35 Partly Cloudy 88 31 68 20 52 52 S 8 13 29.81 1009 10 16.0934 0 0
6:55 pm 18:55 Partly Cloudy 82 28 72 22 70 70 SW 5 7 29.83 1010 10 16.0934 0 0
7:15 pm 19:15 Mostly Cloudy with Nearby Thunderstorms 82 28 72 22 70 70 WSW 8 13 29.86 1011 10 16.0934 0 0
7:35 pm 19:35 Mostly Cloudy with Nearby Thunderstorms 72 22 70 21 94 94 SW 15 24 29.89 1012 5 8.0467 0.03 0.762
7:55 pm 19:55 Mostly Cloudy with Thunderstorms 72 22 68 20 88 88 S 6 9 29.89 1012 10 16.0934 0.03 0.762
8:15 pm 20:15 Mostly Cloudy 72 22 68 20 88 88 ESE 6 9 29.87 1011 10 16.0934 0.03 0.762
8:35 pm 20:35 Partly Cloudy 70 21 68 20 94 94 SSE 3 6 29.86 1011 10 16.0934 0.05 1.27
8:55 pm 20:55 Partly Cloudy 68 20 68 20 100 100 WSW 5 7 29.87 1012 10 16.0934 0.05 1.27
9:15 pm 21:15 Partly Cloudy 68 20 68 20 100 100 Calm 29.87 1012 10 16.0934 0 0
9:35 pm 21:35 Partly Cloudy 68 20 68 20 100 100 N 7 11 29.88 1012 10 16.0934 0.01 0.254
9:55 pm 21:55 Mostly Cloudy with Nearby Thunderstorms 68 20 68 20 100 100 N 9 15 29.9 1013 10 16.0934 0.01 0.254
10:15 pm 22:15 Cloudy with Nearby Thunderstorms 68 20 68 20 100 100 NNW 9 15 29.9 1013 5 8.0467 0.13 3.302
10:35 pm 22:35 Cloudy with Thunderstorms 68 20 68 20 100 100 Calm 29.89 1012 7 11.26538 0.25 6.35
10:55 pm 22:55 Cloudy with Thunderstorms 68 20 68 20 100 100 SE 3 6 29.9 1013 10 16.0934 0.26 6.604
11:15 pm 23:15 Mostly Cloudy with Nearby Thunderstorms 68 20 68 20 100 100 SSE 5 7 29.89 1012 10 16.0934 0 0
11:35 pm 23:35 Cloudy with Thunderstorms 66 19 66 19 100 100 SSW 5 7 29.93 1014 10 16.0934 0.01 0.254
11:55 pm 23:55 Cloudy with Nearby Thunderstorms 66 19 66 19 100 100 SW 7 11 29.96 1015 7 11.26538 0.05 1.27

Powered by AerisWeather